Time,TemperatureF,DewpointF,PressureIn,WindDirection,WindDirectionDegrees,WindSpeedMPH,WindSpeedGustMPH,Humidity,HourlyPrecipIn,Conditions,Clouds,dailyrainin,SoftwareType,DateUTC
2013-01-16 00:04:00,17.3,10.1,30.09,SW,217,1.0,1.0,73,0.00,,,0.00,Wunderground v.1.15,2013-01-16 06:04:00,
2013-01-16 00:10:00,17.3,9.8,30.09,WSW,240,0.0,0.0,72,0.00,,,0.00,Wunderground v.1.15,2013-01-16 06:10:00,
2013-01-16 00:15:00,17.3,9.8,30.08,SSW,212,0.0,0.0,72,0.00,,,0.00,Wunderground v.1.15,2013-01-16 06:15:00,
2013-01-16 00:22:00,17.3,9.8,30.08,SW,232,0.0,0.0,72,0.00,,,0.00,Wunderground v.1.15,2013-01-16 06:22:00,
2013-01-16 00:27:00,17.2,9.7,30.08,South,176,0.0,1.0,72,0.00,,,0.00,Wunderground v.1.15,2013-01-16 06:27:00,
2013-01-16 00:32:00,17.2,9.7,30.07,SE,145,0.0,0.0,72,0.00,,,0.00,Wunderground v.1.15,2013-01-16 06:32:00,
2013-01-16 00:38:00,17.2,9.7,30.07,South,175,0.0,0.0,72,0.00,,,0.00,Wunderground v.1.15,2013-01-16 06:38:00,
2013-01-16 00:43:00,17.0,9.5,30.07,SSW,198,0.0,0.0,72,0.00,,,0.00,Wunderground v.1.15,2013-01-16 06:43:00,
2013-01-16 00:49:00,17.0,9.2,30.06,SSW,202,0.0,0.0,71,0.00,,,0.00,Wunderground v.1.15,2013-01-16 06:49:00,
2013-01-16 00:54:00,17.0,9.2,30.06,SSW,212,0.0,3.0,71,0.00,,,0.00,Wunderground v.1.15,2013-01-16 06:54:00,
2013-01-16 01:00:00,17.0,9.2,30.06,South,185,1.0,1.0,71,0.00,,,0.00,Wunderground v.1.15,2013-01-16 07:00:00,
2013-01-16 01:05:00,17.0,9.2,30.06,SW,230,0.0,1.0,71,0.00,,,0.00,Wunderground v.1.15,2013-01-16 07:05:00,
2013-01-16 01:11:00,17.2,9.4,30.06,SSW,206,1.0,5.0,71,0.00,,,0.00,Wunderground v.1.15,2013-01-16 07:11:00,
2013-01-16 01:17:00,17.2,9.4,30.06,SW,234,3.0,6.0,71,0.00,,,0.00,Wunderground v.1.15,2013-01-16 07:17:00,
2013-01-16 01:22:00,17.3,9.2,30.06,SSW,212,2.0,6.0,70,0.00,,,0.00,Wunderground v.1.15,2013-01-16 07:22:00,
2013-01-16 01:27:00,17.5,9.4,30.06,SW,220,3.0,6.0,70,0.00,,,0.00,Wunderground v.1.15,2013-01-16 07:27:00,
2013-01-16 01:32:00,17.5,9.1,30.05,SW,216,3.0,3.0,69,0.00,,,0.00,Wunderground v.1.15,2013-01-16 07:32:00,
2013-01-16 01:38:00,17.7,9.2,30.05,SW,220,3.0,7.0,69,0.00,,,0.00,Wunderground v.1.15,2013-01-16 07:38:00,
2013-01-16 01:44:00,17.7,8.9,30.04,WSW,237,4.0,12.0,68,0.00,,,0.00,Wunderground v.1.15,2013-01-16 07:44:00,
2013-01-16 01:49:00,17.8,9.0,30.04,SW,223,5.0,12.0,68,0.00,,,0.00,Wunderground v.1.15,2013-01-16 07:49:00,
2013-01-16 01:54:00,17.8,9.0,30.04,SW,226,5.0,8.0,68,0.00,,,0.00,Wunderground v.1.15,2013-01-16 07:54:00,
2013-01-16 02:00:00,17.8,8.7,30.04,WSW,241,3.0,3.0,67,0.00,,,0.00,Wunderground v.1.15,2013-01-16 08:00:00,
2013-01-16 02:05:00,17.8,8.7,30.04,WSW,247,3.0,5.0,67,0.00,,,0.00,Wunderground v.1.15,2013-01-16 08:05:00,
2013-01-16 02:10:00,18.0,8.9,30.04,SSW,202,5.0,5.0,67,0.00,,,0.00,Wunderground v.1.15,2013-01-16 08:10:00,
2013-01-16 02:15:00,18.0,8.9,30.03,SW,227,5.0,7.0,67,0.00,,,0.00,Wunderground v.1.15,2013-01-16 08:15:00,
2013-01-16 02:21:00,18.0,8.5,30.03,SW,226,4.0,5.0,66,0.00,,,0.00,Wunderground v.1.15,2013-01-16 08:21:00,
2013-01-16 02:26:00,18.0,8.5,30.03,SW,224,4.0,7.0,66,0.00,,,0.00,Wunderground v.1.15,2013-01-16 08:26:00,
2013-01-16 02:31:00,18.0,8.5,30.02,SSW,206,4.0,4.0,66,0.00,,,0.00,Wunderground v.1.15,2013-01-16 08:31:00,
2013-01-16 02:37:00,18.0,8.2,30.02,SW,230,4.0,7.0,65,0.00,,,0.00,Wunderground v.1.15,2013-01-16 08:37:00,
2013-01-16 02:43:00,18.0,8.2,30.02,SW,220,4.0,7.0,65,0.00,,,0.00,Wunderground v.1.15,2013-01-16 08:43:00,
2013-01-16 02:48:00,18.0,8.2,30.02,SW,220,4.0,10.0,65,0.00,,,0.00,Wunderground v.1.15,2013-01-16 08:48:00,
2013-01-16 02:54:00,18.0,8.2,30.02,SW,234,3.0,7.0,65,0.00,,,0.00,Wunderground v.1.15,2013-01-16 08:54:00,
2013-01-16 03:00:00,17.8,8.0,30.01,SW,224,3.0,8.0,65,0.00,,,0.00,Wunderground v.1.15,2013-01-16 09:00:00,
2013-01-16 03:05:00,17.8,7.7,30.01,SW,226,3.0,8.0,64,0.00,,,0.00,Wunderground v.1.15,2013-01-16 09:05:00,
2013-01-16 03:10:00,17.8,8.0,30.01,SW,227,4.0,4.0,65,0.00,,,0.00,Wunderground v.1.15,2013-01-16 09:10:00,
2013-01-16 03:15:00,17.8,7.7,30.01,SW,227,4.0,12.0,64,0.00,,,0.00,Wunderground v.1.15,2013-01-16 09:15:00,
2013-01-16 03:21:00,17.8,7.7,30.01,SSW,196,3.0,4.0,64,0.00,,,0.00,Wunderground v.1.15,2013-01-16 09:21:00,
2013-01-16 03:27:00,17.8,7.7,30.01,SW,219,2.0,7.0,64,0.00,,,0.00,Wunderground v.1.15,2013-01-16 09:27:00,
2013-01-16 03:32:00,17.8,7.7,30.00,SW,222,2.0,5.0,64,0.00,,,0.00,Wunderground v.1.15,2013-01-16 09:32:00,
2013-01-16 03:38:00,17.7,7.6,30.00,SW,230,3.0,5.0,64,0.00,,,0.00,Wunderground v.1.15,2013-01-16 09:38:00,
2013-01-16 03:44:00,17.5,7.4,29.99,WSW,237,2.0,5.0,64,0.00,,,0.00,Wunderground v.1.15,2013-01-16 09:44:00,
2013-01-16 03:49:00,17.5,7.7,29.99,SW,226,2.0,5.0,65,0.00,,,0.00,Wunderground v.1.15,2013-01-16 09:49:00,
2013-01-16 03:55:00,17.3,7.5,29.99,SW,236,2.0,5.0,65,0.00,,,0.00,Wunderground v.1.15,2013-01-16 09:55:00,
2013-01-16 04:00:00,17.3,7.5,29.98,SW,220,1.0,1.0,65,0.00,,,0.00,Wunderground v.1.15,2013-01-16 10:00:00,
2013-01-16 04:06:00,17.2,7.4,29.98,SSW,212,1.0,1.0,65,0.00,,,0.00,Wunderground v.1.15,2013-01-16 10:06:00,
2013-01-16 04:12:00,17.2,7.4,29.98,SW,226,0.0,0.0,65,0.00,,,0.00,Wunderground v.1.15,2013-01-16 10:12:00,
2013-01-16 04:17:00,17.0,7.3,29.98,SW,215,1.0,2.0,65,0.00,,,0.00,Wunderground v.1.15,2013-01-16 10:17:00,
2013-01-16 04:23:00,17.0,7.6,29.98,SSW,202,1.0,1.0,66,0.00,,,0.00,Wunderground v.1.15,2013-01-16 10:23:00,
2013-01-16 04:28:00,16.9,7.5,29.98,SW,227,1.0,2.0,66,0.00,,,0.00,Wunderground v.1.15,2013-01-16 10:28:00,
2013-01-16 04:33:00,16.9,7.5,29.96,SSW,213,0.0,1.0,66,0.00,,,0.00,Wunderground v.1.15,2013-01-16 10:33:00,
2013-01-16 04:38:00,16.9,7.5,29.96,SW,216,0.0,1.0,66,0.00,,,0.00,Wunderground v.1.15,2013-01-16 10:38:00,
2013-01-16 04:43:00,16.9,7.5,29.96,SW,223,1.0,2.0,66,0.00,,,0.00,Wunderground v.1.15,2013-01-16 10:43:00,
2013-01-16 04:49:00,16.7,7.3,29.96,South,186,1.0,5.0,66,0.00,,,0.00,Wunderground v.1.15,2013-01-16 10:49:00,
2013-01-16 04:54:00,16.9,7.8,29.96,WSW,237,2.0,5.0,67,0.00,,,0.00,Wunderground v.1.15,2013-01-16 10:54:00,
2013-01-16 05:00:00,16.9,7.5,29.96,WSW,248,2.0,4.0,66,0.00,,,0.00,Wunderground v.1.15,2013-01-16 11:00:00,
2013-01-16 05:06:00,16.9,7.8,29.96,SW,229,2.0,4.0,67,0.00,,,0.00,Wunderground v.1.15,2013-01-16 11:06:00,
2013-01-16 05:11:00,16.9,7.8,29.96,SW,215,1.0,3.0,67,0.00,,,0.00,Wunderground v.1.15,2013-01-16 11:11:00,
2013-01-16 05:16:00,16.9,7.8,29.95,SW,227,1.0,3.0,67,0.00,,,0.00,Wunderground v.1.15,2013-01-16 11:16:00,
2013-01-16 05:22:00,16.9,7.8,29.95,South,189,1.0,1.0,67,0.00,,,0.00,Wunderground v.1.15,2013-01-16 11:22:00,
2013-01-16 05:27:00,16.7,7.6,29.95,SE,145,1.0,2.0,67,0.00,,,0.00,Wunderground v.1.15,2013-01-16 11:27:00,
2013-01-16 05:33:00,16.7,7.6,29.94,South,178,1.0,1.0,67,0.00,,,0.00,Wunderground v.1.15,2013-01-16 11:33:00,
2013-01-16 05:39:00,16.7,7.6,29.94,SSW,212,1.0,1.0,67,0.00,,,0.00,Wunderground v.1.15,2013-01-16 11:39:00,
2013-01-16 05:45:00,16.7,7.6,29.92,SSW,193,1.0,2.0,67,0.00,,,0.00,Wunderground v.1.15,2013-01-16 11:45:00,
2013-01-16 05:50:00,16.7,7.6,29.92,SW,229,2.0,2.0,67,0.00,,,0.00,Wunderground v.1.15,2013-01-16 11:50:00,
2013-01-16 05:55:00,16.9,7.8,29.92,SSW,212,2.0,4.0,67,0.00,,,0.00,Wunderground v.1.15,2013-01-16 11:55:00,
2013-01-16 06:01:00,16.9,7.8,29.91,SW,220,2.0,2.0,67,0.00,,,0.00,Wunderground v.1.15,2013-01-16 12:01:00,
2013-01-16 06:07:00,17.0,7.9,29.91,SW,222,2.0,5.0,67,0.00,,,0.00,Wunderground v.1.15,2013-01-16 12:07:00,
2013-01-16 06:13:00,17.2,8.1,29.91,WSW,250,2.0,5.0,67,0.00,,,0.00,Wunderground v.1.15,2013-01-16 12:13:00,
2013-01-16 06:18:00,17.3,8.2,29.91,SSW,208,3.0,6.0,67,0.00,,,0.00,Wunderground v.1.15,2013-01-16 12:18:00,
2013-01-16 06:24:00,17.5,8.1,29.91,SW,222,3.0,11.0,66,0.00,,,0.00,Wunderground v.1.15,2013-01-16 12:24:00,
2013-01-16 06:30:00,17.5,8.1,29.91,South,188,3.0,3.0,66,0.00,,,0.00,Wunderground v.1.15,2013-01-16 12:30:00,
2013-01-16 06:35:00,17.7,8.3,29.91,SW,216,3.0,6.0,66,0.00,,,0.00,Wunderground v.1.15,2013-01-16 12:35:00,
2013-01-16 06:40:00,17.7,7.9,29.91,SSW,212,2.0,2.0,65,0.00,,,0.00,Wunderground v.1.15,2013-01-16 12:40:00,
2013-01-16 06:47:00,17.7,7.9,29.90,WSW,240,2.0,7.0,65,0.00,,,0.00,Wunderground v.1.15,2013-01-16 12:47:00,
2013-01-16 06:52:00,17.7,7.9,29.90,SSW,210,3.0,5.0,65,0.00,,,0.00,Wunderground v.1.15,2013-01-16 12:52:00,
2013-01-16 06:57:00,17.7,7.9,29.90,SW,215,3.0,6.0,65,0.00,,,0.00,Wunderground v.1.15,2013-01-16 12:57:00,
2013-01-16 07:02:00,17.8,8.0,29.90,SSW,212,4.0,5.0,65,0.00,,,0.00,Wunderground v.1.15,2013-01-16 13:02:00,
2013-01-16 07:08:00,18.0,8.2,29.90,South,185,4.0,16.0,65,0.00,,,0.00,Wunderground v.1.15,2013-01-16 13:08:00,
2013-01-16 07:13:00,18.0,8.2,29.90,WSW,239,3.0,4.0,65,0.00,,,0.00,Wunderground v.1.15,2013-01-16 13:13:00,
2013-01-16 07:19:00,18.1,8.3,29.90,WSW,243,3.0,7.0,65,0.00,,,0.00,Wunderground v.1.15,2013-01-16 13:19:00,
2013-01-16 07:24:00,18.1,8.6,29.90,SSW,205,4.0,8.0,66,0.00,,,0.00,Wunderground v.1.15,2013-01-16 13:24:00,
2013-01-16 07:29:00,18.3,8.8,29.90,SSW,200,6.0,8.0,66,0.00,,,0.00,Wunderground v.1.15,2013-01-16 13:29:00,
2013-01-16 07:35:00,18.6,9.1,29.90,SW,229,7.0,16.0,66,0.00,,,0.00,Wunderground v.1.15,2013-01-16 13:35:00,
2013-01-16 07:41:00,18.8,9.3,29.90,SW,222,7.0,12.0,66,0.00,,,0.00,Wunderground v.1.15,2013-01-16 13:41:00,
2013-01-16 07:46:00,19.1,9.6,29.89,SSW,213,6.0,12.0,66,0.00,,,0.00,Wunderground v.1.15,2013-01-16 13:46:00,
2013-01-16 07:52:00,19.2,9.7,29.89,SW,236,6.0,7.0,66,0.00,,,0.00,Wunderground v.1.15,2013-01-16 13:52:00,
2013-01-16 07:57:00,19.4,9.9,29.89,SW,226,6.0,7.0,66,0.00,,,0.00,Wunderground v.1.15,2013-01-16 13:57:00,
2013-01-16 08:02:00,19.4,9.9,29.89,WSW,240,7.0,17.0,66,0.00,,,0.00,Wunderground v.1.15,2013-01-16 14:02:00,
2013-01-16 08:08:00,19.5,9.6,29.89,WSW,250,6.0,17.0,65,0.00,,,0.00,Wunderground v.1.15,2013-01-16 14:08:00,
2013-01-16 08:13:00,19.7,10.2,29.89,SSW,213,5.0,6.0,66,0.00,,,0.00,Wunderground v.1.15,2013-01-16 14:13:00,
2013-01-16 08:18:00,19.7,10.2,29.89,WSW,251,4.0,6.0,66,0.00,,,0.00,Wunderground v.1.15,2013-01-16 14:18:00,
2013-01-16 08:24:00,19.9,10.4,29.89,SW,236,4.0,11.0,66,0.00,,,0.00,Wunderground v.1.15,2013-01-16 14:24:00,
2013-01-16 08:29:00,20.0,10.5,29.88,SW,220,6.0,12.0,66,0.00,,,0.00,Wunderground v.1.15,2013-01-16 14:29:00,
2013-01-16 08:35:00,20.2,11.0,29.88,WSW,239,6.0,7.0,67,0.00,,,0.00,Wunderground v.1.15,2013-01-16 14:35:00,
2013-01-16 08:40:00,20.3,11.1,29.88,SW,236,6.0,6.0,67,0.00,,,0.00,Wunderground v.1.15,2013-01-16 14:40:00,
2013-01-16 08:45:00,20.5,11.3,29.87,SSW,208,5.0,10.0,67,0.00,,,0.00,Wunderground v.1.15,2013-01-16 14:45:00,
2013-01-16 08:50:00,20.8,11.6,29.87,SW,216,5.0,5.0,67,0.00,,,0.00,Wunderground v.1.15,2013-01-16 14:50:00,
2013-01-16 08:56:00,21.3,12.0,29.87,SW,234,5.0,12.0,67,0.00,,,0.00,Wunderground v.1.15,2013-01-16 14:56:00,
2013-01-16 09:01:00,21.6,12.3,29.87,WNW,289,6.0,6.0,67,0.00,,,0.00,Wunderground v.1.15,2013-01-16 15:01:00,
2013-01-16 09:07:00,22.2,12.9,29.87,SSW,200,5.0,6.0,67,0.00,,,0.00,Wunderground v.1.15,2013-01-16 15:07:00,
2013-01-16 09:13:00,22.7,13.4,29.87,South,191,5.0,10.0,67,0.00,,,0.00,Wunderground v.1.15,2013-01-16 15:13:00,
2013-01-16 09:18:00,23.0,13.7,29.86,SSW,203,5.0,10.0,67,0.00,,,0.00,Wunderground v.1.15,2013-01-16 15:18:00,
2013-01-16 09:23:00,23.3,13.6,29.86,SE,138,5.0,8.0,66,0.00,,,0.00,Wunderground v.1.15,2013-01-16 15:23:00,
2013-01-16 09:29:00,23.8,14.1,29.85,SW,234,4.0,8.0,66,0.00,,,0.00,Wunderground v.1.15,2013-01-16 15:29:00,
2013-01-16 09:35:00,24.1,14.4,29.85,SSE,148,3.0,4.0,66,0.00,,,0.00,Wunderground v.1.15,2013-01-16 15:35:00,
2013-01-16 09:40:00,24.4,14.3,29.85,SW,233,4.0,6.0,65,0.00,,,0.00,Wunderground v.1.15,2013-01-16 15:40:00,
2013-01-16 09:45:00,24.5,14.4,29.84,WSW,237,4.0,6.0,65,0.00,,,0.00,Wunderground v.1.15,2013-01-16 15:45:00,
2013-01-16 09:52:00,24.7,14.2,29.84,SSW,195,3.0,7.0,64,0.00,,,0.00,Wunderground v.1.15,2013-01-16 15:52:00,
2013-01-16 09:57:00,24.8,14.3,29.84,SW,217,3.0,7.0,64,0.00,,,0.00,Wunderground v.1.15,2013-01-16 15:57:00,
2013-01-16 10:03:00,25.1,15.0,29.84,SW,229,2.0,10.0,65,0.00,,,0.00,Wunderground v.1.15,2013-01-16 16:03:00,
2013-01-16 10:08:00,25.4,14.9,29.84,SW,220,4.0,10.0,64,0.00,,,0.00,Wunderground v.1.15,2013-01-16 16:08:00,
2013-01-16 10:14:00,25.8,15.3,29.83,WSW,248,6.0,8.0,64,0.00,,,0.00,Wunderground v.1.15,2013-01-16 16:14:00,
2013-01-16 10:19:00,26.3,15.4,29.83,SSW,202,5.0,12.0,63,0.00,,,0.00,Wunderground v.1.15,2013-01-16 16:19:00,
2013-01-16 10:25:00,26.6,15.7,29.83,SW,232,5.0,9.0,63,0.00,,,0.00,Wunderground v.1.15,2013-01-16 16:25:00,
2013-01-16 10:33:00,27.0,16.1,29.82,West,277,4.0,5.0,63,0.00,,,0.00,Wunderground v.1.15,2013-01-16 16:33:00,
2013-01-16 10:38:00,27.3,16.0,29.82,WSW,247,4.0,8.0,62,0.00,,,0.00,Wunderground v.1.15,2013-01-16 16:38:00,
2013-01-16 10:44:00,27.6,16.3,29.82,SW,232,4.0,7.0,62,0.00,,,0.00,Wunderground v.1.15,2013-01-16 16:44:00,
2013-01-16 10:49:00,28.1,16.7,29.82,SSW,213,6.0,10.0,62,0.00,,,0.00,Wunderground v.1.15,2013-01-16 16:49:00,
2013-01-16 10:54:00,28.2,16.5,29.82,SW,230,5.0,7.0,61,0.00,,,0.00,Wunderground v.1.15,2013-01-16 16:54:00,
2013-01-16 10:59:00,28.5,16.7,29.82,WSW,243,5.0,9.0,61,0.00,,,0.00,Wunderground v.1.15,2013-01-16 16:59:00,
2013-01-16 11:05:00,28.7,16.9,29.82,WSW,237,4.0,6.0,61,0.00,,,0.00,Wunderground v.1.15,2013-01-16 17:05:00,
2013-01-16 11:10:00,29.0,17.6,29.82,WNW,296,4.0,6.0,62,0.00,,,0.00,Wunderground v.1.15,2013-01-16 17:10:00,
2013-01-16 11:15:00,29.3,17.9,29.80,SW,230,5.0,11.0,62,0.00,,,0.00,Wunderground v.1.15,2013-01-16 17:15:00,
2013-01-16 11:20:00,29.4,18.0,29.80,WSW,254,5.0,8.0,62,0.00,,,0.00,Wunderground v.1.15,2013-01-16 17:20:00,
2013-01-16 11:26:00,29.7,18.3,29.80,WSW,239,5.0,8.0,62,0.00,,,0.00,Wunderground v.1.15,2013-01-16 17:26:00,
2013-01-16 11:31:00,30.0,18.5,29.81,SW,232,5.0,10.0,62,0.00,,,0.00,Wunderground v.1.15,2013-01-16 17:31:00,
2013-01-16 11:36:00,30.3,19.2,29.81,WSW,258,6.0,12.0,63,0.00,,,0.00,Wunderground v.1.15,2013-01-16 17:36:00,
2013-01-16 11:41:00,30.7,19.6,29.81,West,260,5.0,6.0,63,0.00,,,0.00,Wunderground v.1.15,2013-01-16 17:41:00,
2013-01-16 11:47:00,31.0,19.9,29.81,WSW,246,4.0,7.0,63,0.00,,,0.00,Wunderground v.1.15,2013-01-16 17:47:00,
2013-01-16 11:52:00,31.0,19.9,29.81,WSW,250,4.0,12.0,63,0.00,,,0.00,Wunderground v.1.15,2013-01-16 17:52:00,
2013-01-16 11:57:00,31.0,19.9,29.81,West,261,4.0,12.0,63,0.00,,,0.00,Wunderground v.1.15,2013-01-16 17:57:00,
2013-01-16 12:02:00,30.9,19.8,29.81,SW,229,4.0,8.0,63,0.00,,,0.00,Wunderground v.1.15,2013-01-16 18:02:00,
2013-01-16 12:07:00,30.9,20.1,29.81,West,263,4.0,8.0,64,0.00,,,0.00,Wunderground v.1.15,2013-01-16 18:07:00,
2013-01-16 12:13:00,31.0,20.6,29.81,West,267,3.0,6.0,65,0.00,,,0.00,Wunderground v.1.15,2013-01-16 18:13:00,
2013-01-16 12:18:00,31.3,20.9,29.80,WSW,251,3.0,6.0,65,0.00,,,0.00,Wunderground v.1.15,2013-01-16 18:18:00,
2013-01-16 12:25:00,31.6,21.5,29.80,West,264,4.0,11.0,66,0.00,,,0.00,Wunderground v.1.15,2013-01-16 18:25:00,
2013-01-16 12:30:00,32.1,22.0,29.80,West,261,3.0,6.0,66,0.00,,,0.00,Wunderground v.1.15,2013-01-16 18:30:00,
2013-01-16 12:36:00,32.5,22.4,29.80,West,270,3.0,8.0,66,0.00,,,0.00,Wunderground v.1.15,2013-01-16 18:36:00,
2013-01-16 12:41:00,32.7,22.2,29.80,SW,229,5.0,5.0,65,0.00,,,0.00,Wunderground v.1.15,2013-01-16 18:41:00,
2013-01-16 12:47:00,32.8,22.0,29.79,WSW,246,5.0,11.0,64,0.00,,,0.00,Wunderground v.1.15,2013-01-16 18:47:00,
2013-01-16 12:52:00,32.7,21.9,29.79,SW,223,5.0,7.0,64,0.00,,,0.00,Wunderground v.1.15,2013-01-16 18:52:00,
2013-01-16 12:58:00,32.5,22.0,29.79,WSW,250,4.0,7.0,65,0.00,,,0.00,Wunderground v.1.15,2013-01-16 18:58:00,
2013-01-16 13:04:00,32.5,22.4,29.79,WSW,248,4.0,8.0,66,0.00,,,0.00,Wunderground v.1.15,2013-01-16 19:04:00,
2013-01-16 13:09:00,32.4,22.3,29.79,SSW,213,4.0,8.0,66,0.00,,,0.00,Wunderground v.1.15,2013-01-16 19:09:00,
2013-01-16 13:15:00,32.4,22.7,29.80,SW,230,3.0,6.0,67,0.00,,,0.00,Wunderground v.1.15,2013-01-16 19:15:00,
2013-01-16 13:20:00,32.1,22.4,29.80,WSW,256,4.0,4.0,67,0.00,,,0.00,Wunderground v.1.15,2013-01-16 19:20:00,
2013-01-16 13:26:00,31.9,22.5,29.80,SW,233,6.0,11.0,68,0.00,,,0.00,Wunderground v.1.15,2013-01-16 19:26:00,
2013-01-16 13:31:00,31.9,22.9,29.80,WSW,251,5.0,6.0,69,0.00,,,0.00,Wunderground v.1.15,2013-01-16 19:31:00,
2013-01-16 13:36:00,31.9,23.2,29.80,WSW,251,4.0,7.0,70,0.00,,,0.00,Wunderground v.1.15,2013-01-16 19:36:00,
2013-01-16 13:42:00,31.9,23.6,29.80,West,263,3.0,4.0,71,0.00,,,0.00,Wunderground v.1.15,2013-01-16 19:42:00,
2013-01-16 13:48:00,31.8,23.8,29.81,WSW,241,3.0,6.0,72,0.00,,,0.00,Wunderground v.1.15,2013-01-16 19:48:00,
2013-01-16 13:53:00,31.8,24.1,29.81,WSW,250,2.0,3.0,73,0.00,,,0.00,Wunderground v.1.15,2013-01-16 19:53:00,
2013-01-16 13:58:00,31.8,24.5,29.81,WSW,248,2.0,4.0,74,0.00,,,0.00,Wunderground v.1.15,2013-01-16 19:58:00,
2013-01-16 14:03:00,31.8,24.5,29.81,WSW,254,3.0,5.0,74,0.00,,,0.00,Wunderground v.1.15,2013-01-16 20:03:00,
2013-01-16 14:09:00,31.6,24.3,29.81,WSW,254,3.0,6.0,74,0.00,,,0.00,Wunderground v.1.15,2013-01-16 20:09:00,
2013-01-16 14:15:00,31.6,24.3,29.81,WSW,247,3.0,6.0,74,0.00,,,0.00,Wunderground v.1.15,2013-01-16 20:15:00,
2013-01-16 14:20:00,31.6,24.3,29.81,WNW,282,3.0,7.0,74,0.00,,,0.00,Wunderground v.1.15,2013-01-16 20:20:00,
2013-01-16 14:26:00,31.8,24.8,29.81,WSW,258,4.0,7.0,75,0.00,,,0.00,Wunderground v.1.15,2013-01-16 20:26:00,
2013-01-16 14:31:00,31.8,24.8,29.82,WSW,247,4.0,4.0,75,0.00,,,0.00,Wunderground v.1.15,2013-01-16 20:31:00,
2013-01-16 14:37:00,31.8,25.1,29.82,WSW,253,2.0,4.0,76,0.00,,,0.00,Wunderground v.1.15,2013-01-16 20:37:00,
2013-01-16 14:43:00,31.8,25.1,29.82,WSW,250,2.0,9.0,76,0.00,,,0.00,Wunderground v.1.15,2013-01-16 20:43:00,
2013-01-16 14:48:00,31.8,25.1,29.82,WSW,256,3.0,9.0,76,0.00,,,0.00,Wunderground v.1.15,2013-01-16 20:48:00,
2013-01-16 14:53:00,31.8,25.4,29.82,West,277,3.0,6.0,77,0.00,,,0.00,Wunderground v.1.15,2013-01-16 20:53:00,
2013-01-16 14:58:00,31.6,25.2,29.82,WSW,247,3.0,7.0,77,0.00,,,0.00,Wunderground v.1.15,2013-01-16 20:58:00,
2013-01-16 15:03:00,31.6,25.2,29.83,WSW,250,3.0,3.0,77,0.00,,,0.00,Wunderground v.1.15,2013-01-16 21:03:00,
2013-01-16 15:09:00,31.6,25.2,29.83,SW,236,2.0,6.0,77,0.00,,,0.00,Wunderground v.1.15,2013-01-16 21:09:00,
2013-01-16 15:14:00,31.6,25.2,29.83,WSW,241,1.0,4.0,77,0.00,,,0.00,Wunderground v.1.15,2013-01-16 21:14:00,
2013-01-16 15:19:00,31.6,25.2,29.83,SW,233,3.0,8.0,77,0.00,,,0.00,Wunderground v.1.15,2013-01-16 21:19:00,
2013-01-16 15:24:00,31.5,25.1,29.83,WSW,251,3.0,5.0,77,0.00,,,0.00,Wunderground v.1.15,2013-01-16 21:24:00,
2013-01-16 15:30:00,31.5,25.1,29.85,West,261,3.0,3.0,77,0.00,,,0.00,Wunderground v.1.15,2013-01-16 21:30:00,
2013-01-16 15:35:00,31.5,25.1,29.85,SW,230,4.0,11.0,77,0.00,,,0.00,Wunderground v.1.15,2013-01-16 21:35:00,
2013-01-16 15:40:00,31.5,25.1,29.85,WNW,282,3.0,3.0,77,0.00,,,0.00,Wunderground v.1.15,2013-01-16 21:40:00,
2013-01-16 15:47:00,31.6,25.5,29.86,WSW,250,2.0,6.0,78,0.00,,,0.00,Wunderground v.1.15,2013-01-16 21:47:00,
2013-01-16 15:52:00,31.6,25.5,29.86,WSW,253,2.0,3.0,78,0.00,,,0.00,Wunderground v.1.15,2013-01-16 21:52:00,
2013-01-16 15:57:00,31.6,25.5,29.86,SW,232,2.0,5.0,78,0.00,,,0.00,Wunderground v.1.15,2013-01-16 21:57:00,
2013-01-16 16:03:00,31.8,25.7,29.86,WSW,247,2.0,2.0,78,0.00,,,0.00,Wunderground v.1.15,2013-01-16 22:03:00,
2013-01-16 16:08:00,31.8,25.7,29.86,WSW,241,2.0,3.0,78,0.00,,,0.00,Wunderground v.1.15,2013-01-16 22:08:00,
2013-01-16 16:13:00,31.9,25.8,29.86,WSW,254,1.0,3.0,78,0.00,,,0.00,Wunderground v.1.15,2013-01-16 22:13:00,
2013-01-16 16:19:00,31.9,25.8,29.88,West,271,2.0,6.0,78,0.00,,,0.00,Wunderground v.1.15,2013-01-16 22:19:00,
2013-01-16 16:25:00,31.9,25.8,29.88,WSW,241,2.0,2.0,78,0.00,,,0.00,Wunderground v.1.15,2013-01-16 22:25:00,
2013-01-16 16:31:00,31.9,25.8,29.89,West,260,1.0,5.0,78,0.00,,,0.00,Wunderground v.1.15,2013-01-16 22:31:00,
2013-01-16 16:37:00,31.9,25.8,29.89,SW,236,1.0,5.0,78,0.00,,,0.00,Wunderground v.1.15,2013-01-16 22:37:00,
2013-01-16 16:42:00,31.9,25.8,29.89,WSW,250,0.0,1.0,78,0.00,,,0.00,Wunderground v.1.15,2013-01-16 22:42:00,
2013-01-16 16:47:00,31.9,25.8,29.89,WSW,248,1.0,2.0,78,0.00,,,0.00,Wunderground v.1.15,2013-01-16 22:47:00,
2013-01-16 16:53:00,31.9,25.8,29.89,WSW,247,0.0,1.0,78,0.00,,,0.00,Wunderground v.1.15,2013-01-16 22:53:00,
2013-01-16 16:59:00,31.8,-99.9,29.89,WSW,246,0.0,1.0,255,0.00,,,0.00,Wunderground v.1.15,2013-01-16 22:59:00,
2013-01-16 17:04:00,31.8,25.7,29.89,WSW,246,0.0,0.0,78,0.00,,,0.00,Wunderground v.1.15,2013-01-16 23:04:00,
2013-01-16 17:09:00,31.8,25.7,29.89,WSW,244,0.0,0.0,78,0.00,,,0.00,Wunderground v.1.15,2013-01-16 23:09:00,
2013-01-16 17:15:00,31.8,25.7,29.91,WSW,246,0.0,1.0,78,0.00,,,0.00,Wunderground v.1.15,2013-01-16 23:15:00,
2013-01-16 17:21:00,31.8,25.7,29.91,WSW,243,0.0,0.0,78,0.00,,,0.00,Wunderground v.1.15,2013-01-16 23:21:00,
2013-01-16 17:26:00,31.8,26.0,29.91,WSW,243,0.0,0.0,79,0.00,,,0.00,Wunderground v.1.15,2013-01-16 23:26:00,
2013-01-16 17:32:00,31.8,26.0,29.92,WSW,241,0.0,0.0,79,0.00,,,0.00,Wunderground v.1.15,2013-01-16 23:32:00,
2013-01-16 17:37:00,31.8,26.0,29.92,SW,222,0.0,0.0,79,0.00,,,0.00,Wunderground v.1.15,2013-01-16 23:37:00,
2013-01-16 17:42:00,31.8,26.0,29.92,SW,222,0.0,0.0,79,0.00,,,0.00,Wunderground v.1.15,2013-01-16 23:42:00,
2013-01-16 17:48:00,31.8,26.0,29.92,SW,222,0.0,0.0,79,0.00,,,0.00,Wunderground v.1.15,2013-01-16 23:48:00,
2013-01-16 17:53:00,31.8,26.0,29.92,SW,222,0.0,0.0,79,0.00,,,0.00,Wunderground v.1.15,2013-01-16 23:53:00,
2013-01-16 17:59:00,31.9,26.4,29.93,SW,220,0.0,5.0,80,0.00,,,0.00,Wunderground v.1.15,2013-01-16 23:59:00,
2013-01-16 18:05:00,31.9,26.4,29.93,SW,216,1.0,6.0,80,0.00,,,0.00,Wunderground v.1.15,2013-01-17 00:05:00,
2013-01-16 18:11:00,32.1,26.6,29.93,WSW,244,0.0,2.0,80,0.00,,,0.00,Wunderground v.1.15,2013-01-17 00:11:00,
2013-01-16 18:19:00,32.1,26.6,29.94,SW,227,0.0,2.0,80,0.00,,,0.00,Wunderground v.1.15,2013-01-17 00:19:00,
2013-01-16 18:25:00,32.2,26.7,29.94,SSW,208,0.0,0.0,80,0.00,,,0.00,Wunderground v.1.15,2013-01-17 00:25:00,
2013-01-16 18:32:00,32.2,26.7,29.94,SSW,212,0.0,2.0,80,0.00,,,0.00,Wunderground v.1.15,2013-01-17 00:32:00,
2013-01-16 18:39:00,32.2,26.7,29.94,SW,215,0.0,2.0,80,0.00,,,0.00,Wunderground v.1.15,2013-01-17 00:39:00,
2013-01-16 18:46:00,32.4,26.9,29.95,SW,222,0.0,2.0,80,0.00,,,0.00,Wunderground v.1.15,2013-01-17 00:46:00,
2013-01-16 18:51:00,32.4,26.9,29.95,SSW,213,0.0,2.0,80,0.00,,,0.00,Wunderground v.1.15,2013-01-17 00:51:00,
2013-01-16 18:57:00,32.4,26.9,29.95,SSW,213,0.0,0.0,80,0.00,,,0.00,Wunderground v.1.15,2013-01-17 00:57:00,
2013-01-16 19:04:00,32.4,26.9,29.95,SSW,210,0.0,0.0,80,0.00,,,0.00,Wunderground v.1.15,2013-01-17 01:04:00,
2013-01-16 19:09:00,32.2,26.7,29.95,SW,220,0.0,0.0,80,0.00,,,0.00,Wunderground v.1.15,2013-01-17 01:09:00,
2013-01-16 19:14:00,32.2,26.7,29.96,WSW,250,0.0,0.0,80,0.00,,,0.00,Wunderground v.1.15,2013-01-17 01:14:00,
2013-01-16 19:20:00,32.2,26.7,29.96,WSW,250,0.0,0.0,80,0.00,,,0.00,Wunderground v.1.15,2013-01-17 01:20:00,
2013-01-16 19:26:00,32.2,26.7,29.96,WSW,253,0.0,0.0,80,0.00,,,0.00,Wunderground v.1.15,2013-01-17 01:26:00,
2013-01-16 19:31:00,32.2,27.0,29.97,WSW,240,0.0,3.0,81,0.00,,,0.00,Wunderground v.1.15,2013-01-17 01:31:00,
2013-01-16 19:37:00,32.2,27.0,29.97,WNW,282,0.0,3.0,81,0.00,,,0.00,Wunderground v.1.15,2013-01-17 01:37:00,
2013-01-16 19:42:00,32.2,27.0,29.97,WSW,243,1.0,3.0,81,0.00,,,0.00,Wunderground v.1.15,2013-01-17 01:42:00,
2013-01-16 19:48:00,32.2,27.0,29.97,WSW,243,1.0,3.0,81,0.00,,,0.00,Wunderground v.1.15,2013-01-17 01:48:00,
2013-01-16 19:53:00,32.4,27.5,29.97,WSW,247,1.0,3.0,82,0.00,,,0.00,Wunderground v.1.15,2013-01-17 01:53:00,
2013-01-16 19:59:00,32.4,27.5,29.97,WSW,257,1.0,5.0,82,0.00,,,0.00,Wunderground v.1.15,2013-01-17 01:59:00,
2013-01-16 20:04:00,32.5,27.6,29.97,WSW,258,1.0,3.0,82,0.00,,,0.00,Wunderground v.1.15,2013-01-17 02:04:00,
2013-01-16 20:09:00,32.5,27.6,29.97,WSW,246,0.0,7.0,82,0.00,,,0.00,Wunderground v.1.15,2013-01-17 02:09:00,
2013-01-16 20:14:00,32.7,28.1,29.98,WSW,256,1.0,3.0,83,0.00,,,0.00,Wunderground v.1.15,2013-01-17 02:14:00,
2013-01-16 20:19:00,32.7,28.1,29.98,WSW,254,1.0,4.0,83,0.00,,,0.00,Wunderground v.1.15,2013-01-17 02:19:00,
2013-01-16 20:25:00,32.8,28.2,29.98,WSW,251,1.0,1.0,83,0.00,,,0.00,Wunderground v.1.15,2013-01-17 02:25:00,
2013-01-16 20:32:00,32.8,28.2,29.99,West,261,0.0,0.0,83,0.00,,,0.00,Wunderground v.1.15,2013-01-17 02:32:00,
2013-01-16 20:37:00,32.8,28.5,29.99,West,265,0.0,0.0,84,0.00,,,0.00,Wunderground v.1.15,2013-01-17 02:37:00,
2013-01-16 20:43:00,32.9,28.6,29.99,West,265,0.0,0.0,84,0.00,,,0.00,Wunderground v.1.15,2013-01-17 02:43:00,
2013-01-16 20:49:00,32.9,28.6,30.00,West,265,0.0,0.0,84,0.00,,,0.00,Wunderground v.1.15,2013-01-17 02:49:00,
2013-01-16 20:55:00,32.9,28.6,30.00,West,263,0.0,0.0,84,0.00,,,0.00,Wunderground v.1.15,2013-01-17 02:55:00,
2013-01-16 21:02:00,32.9,28.6,30.00,WSW,251,0.0,0.0,84,0.00,,,0.00,Wunderground v.1.15,2013-01-17 03:02:00,
2013-01-16 21:07:00,33.1,28.8,30.00,WNW,291,0.0,0.0,84,0.00,,,0.00,Wunderground v.1.15,2013-01-17 03:07:00,
2013-01-16 21:12:00,33.1,29.1,30.00,WNW,288,1.0,7.0,85,0.00,,,0.00,Wunderground v.1.15,2013-01-17 03:12:00,
2013-01-16 21:18:00,33.2,29.2,30.01,NNW,337,2.0,7.0,85,0.00,,,0.00,Wunderground v.1.15,2013-01-17 03:18:00,
2013-01-16 21:23:00,33.2,28.9,30.01,NW,304,1.0,2.0,84,0.00,,,0.00,Wunderground v.1.15,2013-01-17 03:23:00,
2013-01-16 21:28:00,33.4,29.1,30.01,West,280,1.0,3.0,84,0.00,,,0.00,Wunderground v.1.15,2013-01-17 03:28:00,
2013-01-16 21:35:00,33.4,29.1,30.01,NW,318,1.0,3.0,84,0.00,,,0.00,Wunderground v.1.15,2013-01-17 03:35:00,
2013-01-16 21:40:00,33.4,28.8,30.01,NW,308,2.0,4.0,83,0.00,,,0.00,Wunderground v.1.15,2013-01-17 03:40:00,
2013-01-16 21:47:00,33.4,28.8,30.02,West,268,1.0,3.0,83,0.00,,,0.00,Wunderground v.1.15,2013-01-17 03:47:00,
2013-01-16 21:52:00,33.4,28.5,30.02,NW,312,2.0,4.0,82,0.00,,,0.00,Wunderground v.1.15,2013-01-17 03:52:00,
2013-01-16 21:58:00,33.4,28.5,30.02,NW,308,2.0,4.0,82,0.00,,,0.00,Wunderground v.1.15,2013-01-17 03:58:00,
2013-01-16 22:04:00,33.4,28.5,30.03,NNW,342,1.0,3.0,82,0.00,,,0.00,Wunderground v.1.15,2013-01-17 04:04:00,
2013-01-16 22:10:00,33.4,28.2,30.03,North,0,2.0,5.0,81,0.00,,,0.00,Wunderground v.1.15,2013-01-17 04:10:00,
2013-01-16 22:15:00,33.4,28.2,30.03,NNW,329,2.0,6.0,81,0.00,,,0.00,Wunderground v.1.15,2013-01-17 04:15:00,
2013-01-16 22:24:00,33.2,27.7,30.03,North,0,3.0,5.0,80,0.00,,,0.00,Wunderground v.1.15,2013-01-17 04:24:00,
2013-01-16 22:29:00,33.1,27.6,30.03,North,0,4.0,7.0,80,0.00,,,0.00,Wunderground v.1.15,2013-01-17 04:29:00,
2013-01-16 22:35:00,32.9,27.1,30.03,WNW,298,4.0,12.0,79,0.00,,,0.00,Wunderground v.1.15,2013-01-17 04:35:00,
2013-01-16 22:41:00,32.9,27.1,30.03,NNW,346,4.0,12.0,79,0.00,,,0.00,Wunderground v.1.15,2013-01-17 04:41:00,
2013-01-16 22:49:00,32.7,26.6,30.03,North,356,2.0,5.0,78,0.00,,,0.00,Wunderground v.1.15,2013-01-17 04:49:00,
2013-01-16 22:54:00,32.2,25.5,30.03,North,0,4.0,4.0,76,0.00,,,0.00,Wunderground v.1.15,2013-01-17 04:54:00,
2013-01-16 22:59:00,31.8,24.5,30.05,North,0,4.0,7.0,74,0.00,,,0.00,Wunderground v.1.15,2013-01-17 04:59:00,
2013-01-16 23:00:00,31.8,24.5,30.05,North,353,4.0,4.0,74,0.00,,,0.00,Wunderground v.1.15,2013-01-17 05:00:00,
2013-01-16 23:06:00,31.3,23.6,30.05,North,0,3.0,5.0,73,0.00,,,0.00,Wunderground v.1.15,2013-01-17 05:06:00,
2013-01-16 23:08:00,31.3,23.6,30.05,North,357,3.0,12.0,73,0.00,,,0.00,Wunderground v.1.15,2013-01-17 05:08:00,
2013-01-16 23:15:00,30.9,22.9,30.05,North,359,4.0,6.0,72,0.00,,,0.00,Wunderground v.1.15,2013-01-17 05:15:00,
2013-01-16 23:20:00,30.6,22.6,30.05,NNW,332,2.0,2.0,72,0.00,,,0.00,Wunderground v.1.15,2013-01-17 05:20:00,
2013-01-16 23:26:00,30.3,22.4,30.05,North,0,1.0,5.0,72,0.00,,,0.00,Wunderground v.1.15,2013-01-17 05:26:00,
2013-01-16 23:31:00,30.1,22.2,30.06,NW,312,2.0,2.0,72,0.00,,,0.00,Wunderground v.1.15,2013-01-17 05:31:00,
2013-01-16 23:37:00,29.8,21.9,30.06,NNW,329,1.0,2.0,72,0.00,,,0.00,Wunderground v.1.15,2013-01-17 05:37:00,
2013-01-16 23:43:00,29.5,21.6,30.06,NW,319,0.0,1.0,72,0.00,,,0.00,Wunderground v.1.15,2013-01-17 05:43:00,
2013-01-16 23:48:00,29.3,21.4,30.07,NW,304,2.0,6.0,72,0.00,,,0.00,Wunderground v.1.15,2013-01-17 05:48:00,
2013-01-16 23:53:00,29.0,21.1,30.07,WNW,296,3.0,3.0,72,0.00,,,0.00,Wunderground v.1.15,2013-01-17 05:53:00,
2013-01-16 23:59:00,28.7,20.5,30.07,NW,309,2.0,7.0,71,0.00,,,0.00,Wunderground v.1.15,2013-01-17 05:59:00,